Location: ????????
(41.2031°N, 22.5756°E)
Time: 05:26:31
(UTC+00:00)

MOS 1 Rocket - Pass Details

Date: 01 December 2020
Orbit: 614 x 831 km, 97.4° (Epoch: 20 January)

Event Time Altitude Azimuth Distance (km) Brightness Sun altitude
Exits shadow 17:13:31 27° 12° (NNE) 1,544 4.8 -24.2°
Maximum altitude 17:16:36 90° 294° (WNW) 830 3.5 -24.8°
Drops below altitude 10° 17:21:55 10° 194° (SSW) 2,378 6.3 -25.8°
Sets 17:24:13 0° 194° (SSW) 3,281 7.0 -26.2°
